| time (UTC) | temp F | wind direction | speed MPH | gust MPH | rain 1hr in | rain 24hr in | rain mn in | humidity % | barometer mb |
| 20260510200734 | 73 | 264 | 4.0 | 5.0 | 0.00 | 0.00 | 0.00 | 29 | 1020.3 |
| 20260510195729 | 72 | 18 | 3.0 | 8.0 | 0.00 | 0.00 | 0.00 | 28 | 1020.4 |
| 20260510194721 | 71 | 186 | 5.0 | 9.0 | 0.00 | 0.00 | 0.00 | 28 | 1020.5 |
| 20260510193730 | 71 | 142 | 5.0 | 9.0 | 0.00 | 0.00 | 0.00 | 32 | 1020.5 |
| 20260510192718 | 70 | 176 | 4.0 | 6.0 | 0.00 | 0.00 | 0.00 | 29 | 1020.6 |
| 20260510191726 | 70 | 238 | 4.0 | 7.0 | 0.00 | 0.00 | 0.00 | 29 | 1020.7 |
| 20260510190718 | 70 | 221 | 5.0 | 9.0 | 0.00 | 0.00 | 0.00 | 29 | 1020.7 |
| 20260510185732 | 69 | 217 | 4.0 | 9.0 | 0.00 | 0.00 | 0.00 | 29 | 1020.8 |
| 20260510184720 | 69 | 313 | 3.0 | 7.0 | 0.00 | 0.00 | 0.00 | 31 | 1020.8 |
| 20260510183727 | 69 | 218 | 2.0 | 6.0 | 0.00 | 0.00 | 0.00 | 29 | 1020.9 |
| 20260510182720 | 69 | 162 | 2.0 | 6.0 | 0.00 | 0.00 | 0.00 | 30 | 1021.0 |
| 20260510181727 | 68 | 172 | 3.0 | 5.0 | 0.00 | 0.00 | 0.00 | 28 | 1021.1 |
| 20260510180745 | 68 | 287 | 2.0 | 5.0 | 0.00 | 0.00 | 0.00 | 31 | 1021.2 |
| 20260510175719 | 68 | 301 | 2.0 | 4.0 | 0.00 | 0.00 | 0.00 | 32 | 1021.3 |
| 20260510174729 | 67 | 322 | 1.0 | 4.0 | 0.00 | 0.00 | 0.00 | 36 | 1021.3 |
| 20260510173757 | 66 | 344 | 1.0 | 5.0 | 0.00 | 0.00 | 0.00 | 39 | 1021.3 |
| 20260510172747 | 65 | 315 | 2.0 | 4.0 | 0.00 | 0.00 | 0.00 | 42 | 1021.3 |
| 20260510171753 | 64 | 302 | 2.0 | 6.0 | 0.00 | 0.00 | 0.00 | 41 | 1021.4 |
| 20260510170721 | 63 | 331 | 2.0 | 4.0 | 0.00 | 0.00 | 0.00 | 40 | 1021.5 |
| 20260510165756 | 62 | 307 | 1.0 | 3.0 | 0.00 | 0.00 | 0.00 | 41 | 1021.5 |
| 20260510164722 | 61 | 355 | 1.0 | 4.0 | 0.00 | 0.00 | 0.00 | 45 | 1021.5 |
| 20260510163733 | 60 | 348 | 1.0 | 5.0 | 0.00 | 0.00 | 0.00 | 47 | 1021.4 |
| 20260510162720 | 59 | 326 | 3.0 | 5.0 | 0.00 | 0.00 | 0.00 | 49 | 1021.4 |
| 20260510161728 | 57 | 241 | 1.0 | 3.0 | 0.00 | 0.00 | 0.00 | 51 | 1021.4 |
| 20260510160735 | 56 | 239 | 1.0 | 4.0 | 0.00 | 0.00 | 0.00 | 52 | 1021.5 |
| 20260510155733 | 55 | 230 | 2.0 | 4.0 | 0.00 | 0.00 | 0.00 | 54 | 1021.5 |
| 20260510154720 | 54 | 201 | 2.0 | 3.0 | 0.00 | 0.00 | 0.00 | 55 | 1021.6 |
| 20260510153747 | 53 | 203 | 1.0 | 4.0 | 0.00 | 0.00 | 0.00 | 57 | 1021.6 |
| 20260510152733 | 52 | 221 | 1.0 | 3.0 | 0.00 | 0.00 | 0.00 | 58 | 1021.7 |
| 20260510151722 | 52 | 221 | 2.0 | 4.0 | 0.00 | 0.00 | 0.00 | 60 | 1021.7 |
| 20260510150736 | 51 | 241 | 2.0 | 4.0 | 0.00 | 0.00 | 0.00 | 62 | 1021.7 |
| 20260510145730 | 50 | 243 | 1.0 | 4.0 | 0.00 | 0.00 | 0.00 | 65 | 1021.6 |
| 20260510144719 | 50 | 239 | 1.0 | 3.0 | 0.00 | 0.00 | 0.00 | 67 | 1021.6 |
| 20260510143727 | 49 | 260 | 1.0 | 3.0 | 0.00 | 0.00 | 0.00 | 68 | 1021.6 |
| 20260510142740 | 48 | 298 | 1.0 | 3.0 | 0.00 | 0.00 | 0.00 | 69 | 1021.5 |
| 20260510141729 | 47 | 307 | 0.0 | 2.0 | 0.00 | 0.00 | 0.00 | 72 | 1021.5 |
| 20260510140719 | 45 | 307 | 0.0 | 4.0 | 0.00 | 0.00 | 0.00 | 74 | 1021.5 |
| 20260510135734 | 45 | 307 | 2.0 | 5.0 | 0.00 | 0.00 | 0.00 | 71 | 1021.5 |
| 20260510134724 | 46 | 261 | 2.0 | 4.0 | 0.00 | 0.00 | 0.00 | 71 | 1021.4 |
| 20260510133751 | 45 | 281 | 0.0 | 1.0 | 0.00 | 0.00 | 0.00 | 75 | 1021.3 |
| 20260510132738 | 43 | 281 | 0.0 | 0.0 | 0.00 | 0.00 | 0.00 | 80 | 1021.3 |
| 20260510131726 | 42 | 281 | 0.0 | 0.0 | 0.00 | 0.00 | 0.00 | 81 | 1021.2 |
| 20260510130717 | 40 | 281 | 0.0 | 0.0 | 0.00 | 0.00 | 0.00 | 80 | 1021.1 |
| 20260510125722 | 40 | 281 | 0.0 | 3.0 | 0.00 | 0.00 | 0.00 | 80 | 1021.0 |
| 20260510124721 | 40 | 281 | 0.0 | 1.0 | 0.00 | 0.00 | 0.00 | 80 | 1020.9 |
| 20260510123730 | 39 | 281 | 1.0 | 2.0 | 0.00 | 0.00 | 0.00 | 80 | 1020.7 |
| 20260510122739 | 39 | 281 | 0.0 | 0.0 | 0.00 | 0.00 | 0.00 | 79 | 1020.7 |
| 20260510121732 | 39 | 281 | 0.0 | 1.0 | 0.00 | 0.00 | 0.00 | 79 | 1020.7 |
| 20260510120733 | 39 | 281 | 1.0 | 2.0 | 0.00 | 0.00 | 0.00 | 78 | 1020.6 |
| 20260510115728 | 40 | 281 | 1.0 | 3.0 | 0.00 | 0.00 | 0.00 | 78 | 1020.5 |
| 20260510114756 | 40 | 281 | 1.0 | 3.0 | 0.00 | 0.00 | 0.00 | 79 | 1020.5 |
| 20260510113724 | 40 | 281 | 1.0 | 2.0 | 0.00 | 0.00 | 0.00 | 78 | 1020.5 |
| 20260510112737 | 40 | 281 | 2.0 | 3.0 | 0.00 | 0.00 | 0.00 | 77 | 1020.4 |
| 20260510111726 | 41 | 281 | 1.0 | 6.0 | 0.00 | 0.00 | 0.00 | 76 | 1020.3 |
| 20260510110736 | 41 | 81 | 0.0 | 0.0 | 0.00 | 0.00 | 0.00 | 77 | 1020.1 |
| 20260510105730 | 40 | 81 | 0.0 | 3.0 | 0.00 | 0.00 | 0.00 | 78 | 1020.1 |
| 20260510104723 | 40 | 81 | 1.0 | 3.0 | 0.00 | 0.00 | 0.00 | 78 | 1020.2 |
| 20260510103732 | 40 | 81 | 0.0 | 1.0 | 0.00 | 0.00 | 0.00 | 77 | 1020.2 |
| 20260510102741 | 40 | 82 | 0.0 | 0.0 | 0.00 | 0.00 | 0.00 | 74 | 1020.2 |
| 20260510101728 | 41 | 82 | 1.0 | 3.0 | 0.00 | 0.00 | 0.00 | 71 | 1020.2 |
| 20260510100743 | 43 | 82 | 2.0 | 3.0 | 0.00 | 0.00 | 0.00 | 68 | 1020.0 |
| 20260510095755 | 44 | 81 | 0.0 | 2.0 | 0.00 | 0.00 | 0.00 | 68 | 1019.8 |
| 20260510094721 | 44 | 81 | 0.0 | 1.0 | 0.00 | 0.00 | 0.00 | 67 | 1019.8 |
| 20260510093727 | 45 | 81 | 0.0 | 2.0 | 0.00 | 0.00 | 0.00 | 66 | 1019.7 |
| 20260510092717 | 46 | 81 | 0.0 | 1.0 | 0.00 | 0.00 | 0.00 | 64 | 1019.7 |
| 20260510091722 | 46 | 81 | 0.0 | 2.0 | 0.00 | 0.00 | 0.00 | 62 | 1019.7 |
| 20260510090729 | 45 | 81 | 1.0 | 3.0 | 0.00 | 0.00 | 0.00 | 63 | 1019.4 |
| 20260510085722 | 45 | 81 | 2.0 | 3.0 | 0.00 | 0.00 | 0.00 | 64 | 1019.5 |
| 20260510084729 | 45 | 81 | 1.0 | 3.0 | 0.00 | 0.00 | 0.00 | 64 | 1019.5 |
| 20260510083721 | 45 | 81 | 3.0 | 4.0 | 0.00 | 0.00 | 0.00 | 64 | 1019.5 |
| 20260510082729 | 45 | 81 | 1.0 | 3.0 | 0.00 | 0.00 | 0.00 | 64 | 1019.4 |
| 20260510081735 | 45 | 81 | 0.0 | 2.0 | 0.00 | 0.00 | 0.00 | 65 | 1019.5 |
| 20260510080726 | 46 | 81 | 0.0 | 3.0 | 0.00 | 0.00 | 0.00 | 64 | 1019.6 |
| 20260510075720 | 47 | 90 | 0.0 | 0.0 | 0.00 | 0.00 | 0.00 | 63 | 1019.5 |
| 20260510074728 | 47 | 90 | 0.0 | 0.0 | 0.00 | 0.00 | 0.00 | 61 | 1019.4 |
| 20260510073736 | 48 | 90 | 1.0 | 3.0 | 0.00 | 0.00 | 0.00 | 62 | 1019.5 |
| 20260510072733 | 48 | 90 | 0.0 | 2.0 | 0.00 | 0.00 | 0.00 | 60 | 1019.5 |
| 20260510071749 | 48 | 90 | 1.0 | 3.0 | 0.00 | 0.00 | 0.00 | 61 | 1019.4 |
| 20260510070735 | 48 | 90 | 0.0 | 3.0 | 0.00 | 0.00 | 0.00 | 60 | 1019.4 |
| 20260510065731 | 48 | 90 | 2.0 | 4.0 | 0.00 | 0.00 | 0.00 | 61 | 1019.2 |
| 20260510064719 | 48 | 90 | 3.0 | 4.0 | 0.00 | 0.00 | 0.00 | 62 | 1019.2 |
| 20260510063731 | 49 | 90 | 0.0 | 1.0 | 0.00 | 0.00 | 0.00 | 60 | 1019.2 |
| 20260510062718 | 49 | 90 | 1.0 | 2.0 | 0.00 | 0.00 | 0.00 | 60 | 1019.1 |
| 20260510061723 | 49 | 90 | 1.0 | 3.0 | 0.00 | 0.00 | 0.00 | 60 | 1018.9 |
| 20260510060723 | 49 | 90 | 2.0 | 4.0 | 0.00 | 0.00 | 0.00 | 60 | 1019.0 |
| 20260510055718 | 50 | 90 | 2.0 | 6.0 | 0.00 | 0.00 | 0.00 | 57 | 1018.9 |
| 20260510054731 | 51 | 166 | 0.0 | 0.0 | 0.00 | 0.00 | 0.00 | 56 | 1018.8 |
| 20260510053741 | 51 | 166 | 0.0 | 1.0 | 0.00 | 0.00 | 0.00 | 54 | 1018.6 |
| 20260510052730 | 51 | 166 | 0.0 | 2.0 | 0.00 | 0.00 | 0.00 | 53 | 1018.6 |
| 20260510051740 | 52 | 166 | 0.0 | 3.0 | 0.00 | 0.00 | 0.00 | 51 | 1018.5 |
| 20260510050729 | 53 | 166 | 1.0 | 5.0 | 0.00 | 0.00 | 0.00 | 48 | 1018.4 |
| 20260510045748 | 56 | 167 | 1.0 | 6.0 | 0.00 | 0.00 | 0.00 | 46 | 1018.4 |
| 20260510044735 | 59 | 78 | 2.0 | 7.0 | 0.00 | 0.00 | 0.00 | 35 | 1018.1 |
| 20260510043721 | 59 | 66 | 1.0 | 7.0 | 0.00 | 0.00 | 0.00 | 35 | 1018.1 |
| 20260510042730 | 60 | 84 | 4.0 | 8.0 | 0.00 | 0.00 | 0.00 | 33 | 1018.0 |
| 20260510041720 | 60 | 86 | 4.0 | 8.0 | 0.00 | 0.00 | 0.00 | 32 | 1017.9 |
| 20260510040724 | 60 | 67 | 5.0 | 9.0 | 0.00 | 0.00 | 0.00 | 33 | 1017.7 |
| 20260510035718 | 60 | 86 | 6.0 | 9.0 | 0.00 | 0.00 | 0.00 | 33 | 1017.7 |
| 20260510034747 | 60 | 94 | 7.0 | 11.0 | 0.00 | 0.00 | 0.00 | 33 | 1017.5 |
| 20260510033753 | 60 | 83 | 8.0 | 10.0 | 0.00 | 0.00 | 0.00 | 33 | 1017.3 |
| 20260510032743 | 60 | 61 | 6.0 | 10.0 | 0.00 | 0.00 | 0.00 | 35 | 1017.2 |
| 20260510031727 | 60 | 87 | 8.0 | 10.0 | 0.00 | 0.00 | 0.00 | 34 | 1017.0 |
| 20260510030735 | 60 | 82 | 4.0 | 8.0 | 0.00 | 0.00 | 0.00 | 35 | 1016.9 |
| 20260510025730 | 61 | 98 | 5.0 | 7.0 | 0.00 | 0.00 | 0.00 | 34 | 1016.8 |
| 20260510024724 | 64 | 75 | 2.0 | 5.0 | 0.00 | 0.00 | 0.00 | 33 | 1016.7 |
| 20260510023735 | 65 | 49 | 1.0 | 8.0 | 0.00 | 0.00 | 0.00 | 28 | 1016.6 |
| 20260510022723 | 66 | 5 | 1.0 | 4.0 | 0.00 | 0.00 | 0.00 | 28 | 1016.4 |
| 20260510021732 | 67 | 360 | 2.0 | 4.0 | 0.00 | 0.00 | 0.00 | 29 | 1016.3 |
| 20260510020746 | 67 | 9 | 1.0 | 5.0 | 0.00 | 0.00 | 0.00 | 31 | 1016.4 |
| 20260510015722 | 68 | 9 | 3.0 | 6.0 | 0.00 | 0.00 | 0.00 | 30 | 1016.3 |
| 20260510014728 | 69 | 9 | 3.0 | 6.0 | 0.00 | 0.00 | 0.00 | 29 | 1016.2 |
| 20260510013757 | 69 | 9 | 3.0 | 8.0 | 0.00 | 0.00 | 0.00 | 28 | 1016.2 |
| 20260510012727 | 70 | 5 | 3.0 | 8.0 | 0.00 | 0.00 | 0.00 | 26 | 1016.1 |
| 20260510011737 | 71 | 13 | 4.0 | 9.0 | 0.00 | 0.00 | 0.00 | 24 | 1016.0 |
| 20260510010724 | 71 | 360 | 3.0 | 10.0 | 0.00 | 0.00 | 0.00 | 24 | 1016.1 |
| 20260510005740 | 71 | 13 | 4.0 | 9.0 | 0.00 | 0.00 | 0.00 | 25 | 1016.0 |
| 20260510004728 | 71 | 15 | 6.0 | 12.0 | 0.00 | 0.00 | 0.00 | 22 | 1016.0 |
| 20260510003719 | 72 | 360 | 5.0 | 11.0 | 0.00 | 0.00 | 0.00 | 24 | 1016.0 |
| 20260510002725 | 72 | 13 | 4.0 | 12.0 | 0.00 | 0.00 | 0.00 | 23 | 1015.9 |
| 20260510001732 | 73 | 17 | 6.0 | 11.0 | 0.00 | 0.00 | 0.00 | 22 | 1016.0 |
| 20260510000737 | 73 | 351 | 5.0 | 11.0 | 0.00 | 0.00 | 0.00 | 22 | 1016.0 |
| 20260509235716 | 73 | 325 | 6.0 | 12.0 | 0.00 | 0.00 | 0.00 | 20 | 1015.9 |
| 20260509234727 | 73 | 333 | 2.0 | 6.0 | 0.00 | 0.00 | 0.00 | 20 | 1015.9 |
| 20260509233735 | 73 | 351 | 5.0 | 11.0 | 0.00 | 0.00 | 0.00 | 19 | 1016.1 |
| 20260509232724 | 73 | 319 | 4.0 | 14.0 | 0.00 | 0.00 | 0.00 | 19 | 1016.0 |
| 20260509231735 | 73 | 323 | 7.0 | 12.0 | 0.00 | 0.00 | 0.00 | 18 | 1016.0 |
| 20260509230722 | 73 | 335 | 7.0 | 12.0 | 0.00 | 0.00 | 0.00 | 18 | 1016.0 |
| 20260509225736 | 73 | 331 | 5.0 | 12.0 | 0.00 | 0.00 | 0.00 | 18 | 1016.1 |
| 20260509224723 | 73 | 305 | 6.0 | 14.0 | 0.00 | 0.00 | 0.00 | 24 | 1016.2 |
| 20260509223736 | 73 | 287 | 7.0 | 15.0 | 0.00 | 0.00 | 0.00 | 23 | 1016.2 |
| 20260509222724 | 73 | 255 | 8.0 | 11.0 | 0.00 | 0.00 | 0.00 | 21 | 1016.2 |
| 20260509221731 | 73 | 5 | 5.0 | 14.0 | 0.00 | 0.00 | 0.00 | 23 | 1016.3 |
| 20260509220720 | 73 | 5 | 9.0 | 13.0 | 0.00 | 0.00 | 0.00 | 24 | 1016.2 |
| 20260509215734 | 72 | 275 | 8.0 | 15.0 | 0.00 | 0.00 | 0.00 | 21 | 1016.4 |
| 20260509214725 | 73 | 302 | 9.0 | 15.0 | 0.00 | 0.00 | 0.00 | 22 | 1016.4 |
| 20260509213732 | 73 | 273 | 10.0 | 16.0 | 0.00 | 0.00 | 0.00 | 18 | 1016.5 |
| 20260509212720 | 73 | 313 | 7.0 | 13.0 | 0.00 | 0.00 | 0.00 | 21 | 1016.5 |
| 20260509211728 | 73 | 15 | 7.0 | 14.0 | 0.00 | 0.00 | 0.00 | 21 | 1016.5 |
| 20260509210721 | 72 | 328 | 5.0 | 12.0 | 0.00 | 0.00 | 0.00 | 19 | 1016.6 |
| 20260509205716 | 72 | 325 | 12.0 | 19.0 | 0.00 | 0.00 | 0.00 | 22 | 1016.5 |
| 20260509204727 | 71 | 92 | 3.0 | 5.0 | 0.00 | 0.00 | 0.00 | 25 | 1016.6 |
| 20260509203737 | 71 | 61 | 4.0 | 11.0 | 0.00 | 0.00 | 0.00 | 21 | 1016.7 |
| 20260509202731 | 70 | 178 | 3.0 | 12.0 | 0.00 | 0.00 | 0.00 | 22 | 1016.8 |
| 20260509201721 | 70 | 279 | 5.0 | 10.0 | 0.00 | 0.00 | 0.00 | 24 | 1016.7 |